Weather History for KO22 - April, 2014

Change the Weather History Date:

Friday, April 25, 2014

  Actual Average (KMOD) Record (KMOD)
Temperature  
Mean Temperature 46 °F -  
Max Temperature 53 °F 77 °F 92 °F (2004)
Min Temperature 39 °F 51 °F 38 °F (1971)
Degree Days  
Heating Degree Days 19 3  
Month to date heating degree days 117  
Since 1 July heating degree days 2122  
Cooling Degree Days 0 2  
Month to date cooling degree days 27  
Year to date cooling degree days 32  
Moisture  
Dew Point 44 °F    
Average Humidity 93    
Maximum Humidity 100    
Minimum Humidity 82    
Precipitation  
Precipitation 1.42 in 0.03 in 0.91 in (1978)
Month to date precipitation 0.84  
Year to date precipitation 7.87  
Snow  
Snow 0.00 in - - ()
Month to date snowfall  
Since 1 July snowfall  
Snow Depth -    
Sea Level Pressure  
Sea Level Pressure 29.84 in    
Wind  
Wind Speed 3 mph (SSW)    
Max Wind Speed 16 mph    
Max Gust Speed 32 mph    
Visibility 6 miles    
Events      
T = Trace of Precipitation, MM = Missing Value Source: NWS Daily Summary

Daily Weather History Graph

Daily Weather History Graph

Search for Another Location

Airport or City:

Trip Planner

Search our weather history database for the weather conditions in past years. The results will help you decide how hot, cold, wet, or windy it might be!

Date:

Astronomy

Apr. 25, 2014 Rise Set
Actual Time 6:12 AM PDT 7:47 PM PDT
Civil Twilight 5:44 AM PDT 8:15 PM PDT
Nautical Twilight 5:11 AM PDT 8:48 PM PDT
Astronomical Twilight 4:35 AM PDT 9:24 PM PDT
Moon 4:00 AM PDT (4/25) 4:18 PM PDT (4/25)
Length of Visible Light 14h 30m
Length of Day
13h 34m
Waning Crescent, 14% of the Moon is Illuminated
Apr 25
Waning Crescent
Apr 28
New
May 6
First Quarter
May 14
Full
May 21
Last Quarter

Hourly Weather History & Observations

Time (PDT) Temp. Windchill Dew Point Humidity Pressure Visibility Wind Dir Wind Speed Gust Speed Precip Events Conditions
12:15 AM 53.6 °F - 48.2 °F 82% 29.96 in 10.0 mi NW 3.5 mph - N/A   Overcast
12:35 AM 53.6 °F - 48.2 °F 82% 29.96 in 10.0 mi WSW 4.6 mph - N/A   Overcast
12:55 AM 51.8 °F - 48.2 °F 88% 29.95 in 10.0 mi WNW 5.8 mph - N/A   Overcast
1:15 AM 51.8 °F - 48.2 °F 88% 29.96 in 10.0 mi NW 4.6 mph - N/A   Overcast
1:35 AM 50.0 °F - 48.2 °F 94% 29.93 in 10.0 mi North 4.6 mph - N/A   Mostly Cloudy
1:55 AM 51.8 °F - 48.2 °F 88% 29.92 in 10.0 mi NNE 5.8 mph - N/A   Overcast
2:15 AM 51.8 °F - 46.4 °F 82% 29.92 in 10.0 mi NW 3.5 mph - N/A   Overcast
2:35 AM 51.8 °F - 46.4 °F 82% 29.90 in 10.0 mi Calm Calm - N/A   Overcast
2:55 AM 50.0 °F - 46.4 °F 87% 29.90 in 10.0 mi Calm Calm - N/A   Overcast
3:15 AM 51.8 °F - 48.2 °F 88% 29.89 in 10.0 mi WSW 5.8 mph - N/A   Overcast
3:35 AM 50.0 °F - 48.2 °F 94% 29.90 in 10.0 mi SSW 6.9 mph - N/A   Overcast
3:55 AM 50.0 °F - 50.0 °F 100% 29.92 in 3.0 mi SW 8.1 mph - 0.01 in   Overcast
4:35 AM 50.0 °F - 48.2 °F 94% 29.91 in 3.0 mi WSW 9.2 mph - 0.13 in   Overcast
4:55 AM 48.2 °F - 46.4 °F 93% 29.90 in 4.0 mi Calm Calm - 0.15 in   Overcast
5:15 AM 48.2 °F - 46.4 °F 93% 29.90 in 4.0 mi Calm Calm - 0.01 in   Overcast
5:35 AM 48.2 °F - 46.4 °F 93% 29.90 in 2.5 mi Calm Calm - 0.06 in   Overcast
5:55 AM 46.4 °F - 46.4 °F 100% 29.90 in 3.0 mi Calm Calm - 0.10 in   Overcast
6:15 AM 46.4 °F 45.2 °F 46.4 °F 100% 29.90 in 4.0 mi WNW 3.5 mph - 0.02 in   Overcast
6:35 AM 46.4 °F - 44.6 °F 93% 29.90 in 3.0 mi Calm Calm - 0.07 in   Overcast
6:55 AM 46.4 °F 45.2 °F 44.6 °F 93% 29.89 in 3.0 mi West 3.5 mph - 0.13 in   Overcast
7:15 AM 46.4 °F - 46.4 °F 100% 29.89 in 3.0 mi Calm Calm - 0.02 in   Scattered Clouds
7:35 AM 46.4 °F - 44.6 °F 93% 29.89 in 3.0 mi Calm Calm - 0.08 in   Mostly Cloudy
7:55 AM 44.6 °F - 44.6 °F 100% 29.88 in 3.0 mi Calm Calm - 0.11 in   Mostly Cloudy
8:15 AM 46.4 °F - 44.6 °F 93% 29.88 in 3.0 mi Calm Calm - 0.03 in   Mostly Cloudy
8:35 AM 46.4 °F - 44.6 °F 93% 29.88 in 4.0 mi Calm Calm - 0.05 in   Mostly Cloudy
8:55 AM 46.4 °F - 44.6 °F 93% 29.87 in 3.0 mi Calm Calm - 0.07 in   Scattered Clouds
9:15 AM 46.4 °F - 44.6 °F 93% 29.87 in 3.0 mi Calm Calm - 0.02 in   Scattered Clouds
9:35 AM 46.4 °F - 44.6 °F 93% 29.86 in 5.0 mi Calm Calm - 0.05 in   Mostly Cloudy
9:55 AM 46.4 °F - 44.6 °F 93% 29.87 in 5.0 mi Calm Calm - 0.08 in   Overcast
10:15 AM 46.4 °F 45.2 °F 44.6 °F 93% 29.87 in 5.0 mi West 3.5 mph - 0.01 in   Mostly Cloudy
10:35 AM 46.4 °F - 44.6 °F 93% 29.87 in 5.0 mi Calm Calm - 0.05 in   Partly Cloudy
10:55 AM 46.4 °F - 44.6 °F 93% 29.87 in 5.0 mi Calm Calm - 0.08 in   Scattered Clouds
11:15 AM 46.4 °F - 44.6 °F 93% 29.87 in 3.0 mi Calm Calm - 0.02 in   Mostly Cloudy
11:35 AM 46.4 °F 45.2 °F 44.6 °F 93% 29.86 in 7.0 mi SSE 3.5 mph - 0.03 in   Mostly Cloudy
11:55 AM 46.4 °F - 44.6 °F 93% 29.85 in 2.5 mi Calm Calm - 0.05 in   Mostly Cloudy
12:15 PM 46.4 °F - 46.4 °F 100% 29.85 in 3.0 mi Calm Calm - N/A   Mostly Cloudy
12:35 PM 46.4 °F - 46.4 °F 100% 29.84 in 2.0 mi Calm Calm - 0.01 in   Mostly Cloudy
12:55 PM 46.4 °F - 46.4 °F 100% 29.84 in 2.5 mi Calm Calm - 0.05 in   Partly Cloudy
1:15 PM 48.2 °F - 46.4 °F 93% 29.83 in 5.0 mi SSE 3.5 mph - 0.01 in   Mostly Cloudy
1:35 PM 48.2 °F - 46.4 °F 93% 29.82 in 10.0 mi SSE 6.9 mph - 0.01 in   Mostly Cloudy
1:55 PM 48.2 °F - 46.4 °F 93% 29.81 in 10.0 mi SSE 6.9 mph - 0.01 in   Mostly Cloudy
2:15 PM 48.2 °F - 48.2 °F 100% 29.81 in 10.0 mi SSE 3.5 mph - 0.01 in   Mostly Cloudy
2:35 PM 48.2 °F - 46.4 °F 93% 29.80 in 10.0 mi SE 4.6 mph - 0.01 in   Overcast
2:55 PM 50.0 °F - 46.4 °F 87% 29.79 in 10.0 mi SE 5.8 mph - 0.01 in   Overcast
3:15 PM 50.0 °F - 46.4 °F 87% 29.77 in 10.0 mi SE 5.8 mph - N/A   Mostly Cloudy
3:35 PM 50.0 °F - 46.4 °F 87% 29.76 in 10.0 mi SSE 5.8 mph - N/A   Overcast
3:55 PM 50.0 °F - 46.4 °F 87% 29.75 in 10.0 mi SSE 3.5 mph - N/A   Overcast
4:15 PM 48.2 °F - 46.4 °F 93% 29.73 in 5.0 mi SE 3.5 mph - 0.02 in   Overcast
4:35 PM 48.2 °F - 46.4 °F 93% 29.75 in 2.5 mi SSW 16.1 mph 32.2 mph 0.06 in   Mostly Cloudy
4:55 PM 41.0 °F 37.1 °F 39.2 °F 93% 29.78 in 1.8 mi West 5.8 mph 17.3 mph 0.22 in   Mostly Cloudy
5:15 PM 41.0 °F 39.0 °F 39.2 °F 93% 29.78 in 1.8 mi WNW 3.5 mph - 0.06 in   Overcast
5:35 PM 41.0 °F 39.0 °F 41.0 °F 100% 29.78 in 3.0 mi NNE 3.5 mph - 0.10 in   Mostly Cloudy
5:55 PM 41.0 °F - 41.0 °F 100% 29.78 in 2.5 mi Calm Calm - 0.13 in   Scattered Clouds
6:15 PM 41.0 °F 39.0 °F 39.2 °F 93% 29.77 in 3.0 mi North 3.5 mph - 0.04 in   Clear
6:35 PM 41.0 °F 39.0 °F 39.2 °F 93% 29.78 in 3.0 mi NE 3.5 mph - 0.06 in   Scattered Clouds
6:55 PM 39.2 °F 35.0 °F 39.2 °F 100% 29.77 in 4.0 mi NE 5.8 mph - 0.10 in   Mostly Cloudy
7:15 PM 39.2 °F - 37.4 °F 93% 29.77 in 7.0 mi Calm Calm - 0.02 in   Mostly Cloudy
7:35 PM 39.2 °F - 37.4 °F 93% 29.78 in 5.0 mi Calm Calm - 0.05 in   Overcast
7:55 PM 39.2 °F 35.9 °F 37.4 °F 93% 29.76 in 3.0 mi ENE 4.6 mph - 0.11 in   Overcast
8:15 PM 39.2 °F - 37.4 °F 93% 29.77 in 10.0 mi Calm Calm - N/A   Overcast
8:35 PM 39.2 °F - 39.2 °F 100% 29.78 in 10.0 mi Calm Calm - N/A   Overcast
8:55 PM 39.2 °F 35.9 °F 39.2 °F 100% 29.79 in 10.0 mi SE 4.6 mph - N/A   Overcast
9:15 PM 39.2 °F - 39.2 °F 100% 29.78 in 10.0 mi Calm Calm - N/A   Overcast
9:55 PM 41.0 °F - 39.2 °F 93% 29.79 in 10.0 mi Calm Calm - N/A   Overcast
10:15 PM 41.0 °F - 39.2 °F 93% 29.79 in 10.0 mi Calm Calm - N/A   Overcast
10:35 PM 41.0 °F - 39.2 °F 93% 29.78 in 10.0 mi Calm Calm - N/A   Overcast
10:55 PM 41.0 °F 38.0 °F 41.0 °F 100% 29.79 in 10.0 mi SSW 4.6 mph - N/A   Overcast
11:15 PM 41.0 °F 39.0 °F 39.2 °F 93% 29.79 in 7.0 mi South 3.5 mph - N/A   Overcast
11:55 PM 39.2 °F - 39.2 °F 100% 29.80 in 9.0 mi Calm Calm - 0.01 in   Overcast